GW2248 Weather Reports


time (UTC)temp
F
wind
direction
speed
knots
gust
knots
rain 1hr
in
rain 24hr
in
rain mn
in
humidity
%
barometer
mb
20260506004303 61 241 1.7 2.6 0.00 0.00 0.00 76 1009.8
20260506003758 62 252 3.5 6.1 0.00 0.00 0.00 76 1009.9
20260506003255 62 140 2.6 4.3 0.00 0.00 0.00 75 1009.5
20260506002751 62 228 2.6 4.3 0.00 0.00 0.00 75 1009.8
20260506002247 62 74 1.7 1.7 0.00 0.00 0.00 74 1009.9
20260506001743 62 247 4.3 8.7 0.00 0.00 0.00 74 1009.4
20260506001241 62 269 5.2 8.7 0.00 0.00 0.00 75 1009.6
20260506000738 62 94 2.6 2.6 0.00 0.00 0.00 76 1009.5
20260506000235 61 179 3.5 4.3 0.00 0.00 0.00 76 1009.4
20260505235732 61 143 2.6 2.6 0.00 0.00 0.00 76 1009.5
20260505235230 61 226 2.6 2.6 0.00 0.00 0.00 76 1009.5
20260505234726 62 59 3.5 4.3 0.00 0.00 0.00 76 1009.4
20260505234224 62 211 1.7 2.6 0.00 0.00 0.00 76 1009.3
20260505233720 62 280 2.6 4.3 0.00 0.00 0.00 75 1009.2
20260505233218 62 111 0.9 1.7 0.00 0.00 0.00 75 1009.0
20260505232715 62 353 3.5 6.1 0.00 0.00 0.00 75 1009.1
20260505232213 62 338 2.6 6.1 0.00 0.00 0.00 75 1008.9
20260505231709 62 206 4.3 7.8 0.00 0.00 0.00 75 1008.8
20260505231208 62 1 3.5 4.3 0.00 0.00 0.00 75 1008.8
20260505230706 62 173 2.6 4.3 0.00 0.00 0.00 74 1008.7
20260505230202 62 262 3.5 6.1 0.00 0.00 0.00 74 1008.7
20260505225659 62 81 1.7 2.6 0.00 0.00 0.00 75 1008.8
20260505225155 62 147 2.6 4.3 0.00 0.00 0.00 75 1008.7
20260505224651 62 337 1.7 1.7 0.00 0.00 0.00 75 1008.7
20260505224149 62 132 3.5 7.8 0.00 0.00 0.00 75 1008.8
20260505223646 62 65 2.6 2.6 0.00 0.00 0.00 74 1008.8
20260505223142 63 291 2.6 4.3 0.00 0.00 0.00 73 1008.9
20260505222638 63 42 0.0 1.7 0.00 0.00 0.00 73 1008.6
20260505222135 63 218 2.6 4.3 0.00 0.00 0.00 74 1008.4
20260505221632 63 250 2.6 4.3 0.00 0.00 0.00 74 1008.5
20260505221128 62 75 3.5 6.1 0.00 0.00 0.00 74 1008.5
20260505220626 63 257 4.3 6.1 0.00 0.00 0.00 74 1008.3
20260505220123 64 323 3.5 6.1 0.00 0.00 0.00 72 1008.4
20260505215621 64 144 5.2 7.8 0.00 0.00 0.00 71 1008.2
20260505215119 64 357 2.6 4.3 0.00 0.00 0.00 72 1008.3
20260505214617 64 231 3.5 4.3 0.00 0.00 0.00 70 1008.2
20260505214114 65 189 2.6 4.3 0.00 0.00 0.00 70 1008.2
20260505213611 65 292 2.6 2.6 0.00 0.00 0.00 69 1008.1
20260505213108 65 142 1.7 2.6 0.00 0.00 0.00 68 1008.2
20260505212603 65 66 2.6 2.6 0.00 0.00 0.00 68 1008.3
20260505212101 65 259 2.6 4.3 0.00 0.00 0.00 69 1008.4
20260505211552 66 64 0.9 1.7 0.00 0.00 0.00 68 1008.1
20260505211050 66 271 1.7 2.6 0.00 0.00 0.00 68 1008.3
20260505210546 66 156 2.6 2.6 0.00 0.00 0.00 69 1008.0
20260505210043 67 37 1.7 1.7 0.00 0.00 0.00 67 1007.9
20260505205541 66 331 2.6 6.1 0.00 0.00 0.00 68 1008.1
20260505205038 66 112 2.6 4.3 0.00 0.00 0.00 67 1008.2
20260505204536 66 62 2.6 2.6 0.00 0.00 0.00 66 1008.1
20260505204033 66 49 1.7 1.7 0.00 0.00 0.00 67 1008.3
20260505203529 66 289 2.6 4.3 0.00 0.00 0.00 68 1008.4
20260505203027 66 80 1.7 2.6 0.00 0.00 0.00 67 1008.3
20260505202522 66 175 3.5 4.3 0.00 0.00 0.00 67 1008.4
20260505202018 67 191 1.7 2.6 0.00 0.00 0.00 67 1008.7
20260505201516 66 137 2.6 2.6 0.00 0.00 0.00 67 1008.5
20260505201013 67 301 3.5 6.1 0.00 0.00 0.00 66 1008.5
20260505200511 67 280 3.5 4.3 0.00 0.00 0.00 66 1008.5
20260505200008 68 265 1.7 2.6 0.00 0.00 0.00 66 1008.5
20260505195504 68 227 2.6 4.3 0.00 0.00 0.00 65 1008.6
20260505195001 68 82 1.7 2.6 0.00 0.00 0.00 64 1008.6
20260505194459 68 68 0.9 1.7 0.00 0.00 0.00 64 1008.5
20260505193958 69 279 4.3 6.1 0.00 0.00 0.00 64 1008.7
20260505193456 69 237 3.5 4.3 0.00 0.00 0.00 63 1008.6
20260505192953 69 221 1.7 2.6 0.00 0.00 0.00 62 1009.1
20260505192452 69 151 6.1 10.4 0.00 0.00 0.00 62 1008.8
20260505191949 69 338 2.6 4.3 0.00 0.00 0.00 61 1009.2
20260505191448 70 3 3.5 4.3 0.00 0.00 0.00 62 1008.9
20260505190944 69 93 0.9 1.7 0.00 0.00 0.00 62 1009.3
20260505190439 69 173 1.7 1.7 0.00 0.00 0.00 62 1009.4
20260505185935 69 123 0.9 1.7 0.00 0.00 0.00 64 1009.5
20260505185433 68 44 1.7 1.7 0.00 0.00 0.00 64 1009.5
20260505184928 69 243 1.7 2.6 0.00 0.00 0.00 63 1009.6
20260505184425 69 26 1.7 2.6 0.00 0.00 0.00 64 1009.8
20260505183916 67 267 2.6 2.6 0.00 0.00 0.00 66 1009.6
20260505183413 68 313 1.7 2.6 0.00 0.00 0.00 65 1009.9
20260505182910 68 232 1.7 2.6 0.00 0.00 0.00 66 1009.9
20260505182407 67 187 2.6 4.3 0.00 0.00 0.00 66 1010.0
20260505181903 66 113 3.5 4.3 0.00 0.00 0.00 68 1009.9
20260505181401 67 86 2.6 4.3 0.00 0.00 0.00 67 1009.9
20260505180857 67 277 2.6 4.3 0.00 0.00 0.00 67 1010.0
20260505180354 67 256 6.1 7.8 0.00 0.00 0.00 67 1010.1
20260505175850 66 269 3.5 6.1 0.00 0.00 0.00 68 1010.2
20260505175347 66 137 3.5 4.3 0.00 0.00 0.00 68 1010.0
20260505174843 67 121 2.6 2.6 0.00 0.00 0.00 67 1010.2
20260505174341 66 237 4.3 6.1 0.00 0.00 0.00 68 1010.2
20260505173837 67 268 4.3 6.1 0.00 0.00 0.00 69 1010.3
20260505173333 67 292 4.3 6.1 0.00 0.00 0.00 67 1010.5
20260505172831 67 99 3.5 6.1 0.00 0.00 0.00 67 1010.3
20260505172328 67 289 1.7 2.6 0.00 0.00 0.00 67 1010.3
20260505171827 66 236 6.1 8.7 0.00 0.00 0.00 68 1010.4
20260505171325 66 215 2.6 2.6 0.00 0.00 0.00 68 1010.3
20260505170821 67 212 2.6 4.3 0.00 0.00 0.00 66 1010.5
20260505170318 67 79 2.6 2.6 0.00 0.00 0.00 66 1010.5
20260505165814 67 150 2.6 4.3 0.00 0.00 0.00 68 1010.5
20260505165309 66 250 2.6 2.6 0.00 0.00 0.00 68 1010.5
20260505164805 66 92 2.6 4.3 0.00 0.00 0.00 68 1010.6
20260505164303 67 267 2.6 4.3 0.00 0.00 0.00 66 1010.7
20260505163801 67 284 4.3 7.8 0.00 0.00 0.00 66 1010.9
20260505163259 68 115 1.7 1.7 0.00 0.00 0.00 65 1010.8
20260505162756 70 84 1.7 2.6 0.00 0.00 0.00 63 1010.6
20260505162252 69 298 1.7 2.6 0.00 0.00 0.00 63 1010.6
20260505161750 68 243 1.7 1.7 0.00 0.00 0.00 64 1011.0
20260505161247 69 223 1.7 2.6 0.00 0.00 0.00 63 1011.0
20260505160744 69 254 3.5 6.1 0.00 0.00 0.00 62 1010.7
20260505160242 69 104 1.7 2.6 0.00 0.00 0.00 63 1011.0
20260505153221 67 65 0.9 1.7 0.00 0.00 0.00 64 1011.0
20260505152718 67 257 2.6 4.3 0.00 0.00 0.00 65 1011.1
20260505152214 68 257 1.7 2.6 0.00 0.00 0.00 64 1011.4
20260505151709 68 275 3.5 4.3 0.00 0.00 0.00 63 1011.4
20260505151207 67 289 2.6 2.6 0.00 0.00 0.00 64 1011.3
20260505150703 68 189 2.6 2.6 0.00 0.00 0.00 64 1011.3
20260505150201 69 98 5.2 6.1 0.00 0.00 0.00 64 1011.3
20260505140633 66 235 3.5 4.3 0.00 0.00 0.00 68 1011.7
20260505140131 67 94 2.6 4.3 0.00 0.00 0.00 66 1011.7
20260505124544 68 94 0.0 0.0 0.00 0.00 0.00 65 1010.8
20260505124040 68 89 0.9 1.7 0.00 0.00 0.00 65 1011.0
20260505123537 66 121 0.0 1.7 0.00 0.00 0.00 66 1010.9
20260505123033 66 280 1.7 2.6 0.00 0.00 0.00 67 1011.0
20260505122530 65 13 1.7 1.7 0.00 0.00 0.00 68 1010.9
20260505122027 64 206 1.7 2.6 0.00 0.00 0.00 71 1011.1
20260505121523 64 112 0.0 1.7 0.00 0.00 0.00 72 1011.0
20260505121020 63 169 0.9 1.7 0.00 0.00 0.00 74 1010.9
20260505120516 63 112 0.9 1.7 0.00 0.00 0.00 75 1011.0
20260505120012 63 100 1.7 1.7 0.00 0.00 0.00 74 1011.0
20260505115507 62 148 2.6 4.3 0.00 0.00 0.00 74 1010.9
20260505115005 62 78 0.0 0.0 0.00 0.00 0.00 76 1011.1
20260505114502 61 88 0.0 0.0 0.00 0.00 0.00 77 1011.1
20260505113958 61 172 1.7 1.7 0.00 0.00 0.00 77 1011.3
20260505113454 61 258 1.7 2.6 0.00 0.00 0.00 77 1010.9
20260505112949 62 117 0.0 0.0 0.00 0.00 0.00 77 1010.9
20260505112442 61 104 0.0 0.0 0.00 0.00 0.00 77 1011.1
20260505111938 60 90 0.0 0.0 0.00 0.00 0.00 79 1010.9
20260505111432 59 105 0.0 0.0 0.00 0.00 0.00 81 1011.0
20260505110929 59 104 0.0 0.0 0.00 0.00 0.00 81 1011.1
20260505110426 59 132 0.0 0.0 0.00 0.00 0.00 80 1011.0
20260505101857 54 94 0.0 0.0 0.00 0.00 0.00 92 1011.1
20260505101352 54 119 0.0 0.0 0.00 0.00 0.00 92 1010.8
20260505100848 53 88 0.0 0.0 0.00 0.00 0.00 92 1010.5
20260505100344 53 240 0.9 1.7 0.00 0.00 0.00 92 1010.6
20260505095840 53 135 0.9 1.7 0.00 0.00 0.00 92 1010.6
20260505095338 53 257 0.0 0.0 0.00 0.00 0.00 92 1010.3
20260505094833 53 131 0.0 0.0 0.00 0.00 0.00 92 1010.3
20260505094331 53 92 0.0 0.0 0.00 0.00 0.00 92 1010.2
20260505093826 53 115 0.9 1.7 0.00 0.00 0.00 92 1010.2
20260505093324 53 214 1.7 1.7 0.00 0.00 0.00 92 1010.1
20260505092821 53 246 0.9 2.6 0.00 0.00 0.00 92 1010.3
20260505092319 53 101 0.0 0.0 0.00 0.00 0.00 92 1010.2
20260505091816 53 77 1.7 1.7 0.00 0.00 0.00 92 1010.2
20260505091314 53 179 0.0 1.7 0.00 0.00 0.00 92 1010.2
20260505090812 53 91 0.0 0.0 0.00 0.00 0.00 92 1010.1
20260505090310 53 126 0.0 1.7 0.00 0.00 0.00 92 1010.2
20260505085807 53 126 0.0 0.0 0.00 0.00 0.00 92 1010.3
20260505085305 53 103 0.0 0.0 0.00 0.00 0.00 92 1010.1
20260505084802 53 133 0.0 0.0 0.00 0.00 0.00 92 1010.1
20260505084301 53 110 0.0 0.0 0.00 0.00 0.00 92 1010.3
20260505083757 53 147 0.0 0.0 0.00 0.00 0.00 92 1010.2
20260505083254 53 74 0.0 1.7 0.00 0.00 0.00 92 1010.0
20260505082750 53 93 0.0 0.0 0.00 0.00 0.00 92 1010.1
20260505082248 53 120 0.0 0.0 0.00 0.00 0.00 92 1010.0
20260505081743 53 95 1.7 1.7 0.00 0.00 0.00 92 1010.2
20260505081241 53 173 0.0 1.7 0.00 0.00 0.00 92 1010.0
20260505080738 53 103 0.0 1.7 0.00 0.00 0.00 92 1010.3
20260505080233 53 83 0.0 0.0 0.00 0.00 0.00 92 1010.3
20260505075729 53 84 0.9 1.7 0.00 0.00 0.00 92 1010.1
20260505075226 53 102 0.0 0.0 0.00 0.00 0.00 92 1010.1
20260505074724 53 154 0.9 1.7 0.00 0.00 0.00 92 1010.0
20260505074221 53 83 0.0 0.0 0.00 0.00 0.00 92 1010.2
20260505073718 53 25 0.0 1.7 0.00 0.00 0.00 92 1010.3
20260505073216 53 223 0.9 1.7 0.00 0.00 0.00 92 1010.3
20260505072712 53 288 1.7 1.7 0.00 0.00 0.00 92 1010.1
20260505072208 53 117 0.9 1.7 0.00 0.00 0.00 92 1010.1
20260505071704 53 119 0.0 1.7 0.00 0.00 0.00 92 1010.1
20260505071202 53 197 1.7 1.7 0.00 0.00 0.00 92 1010.0
20260505070659 53 102 0.9 1.7 0.00 0.00 0.00 91 1010.0
20260505070155 53 230 1.7 1.7 0.00 0.00 0.00 91 1010.2
20260505065651 53 203 0.9 1.7 0.00 0.00 0.00 91 1010.0
20260505065148 53 253 2.6 2.6 0.00 0.00 0.00 91 1010.2
20260505064645 53 278 2.6 2.6 0.00 0.00 0.00 91 1009.9
20260505064143 54 167 1.7 1.7 0.00 0.00 0.00 91 1010.2
20260505063640 54 109 1.7 2.6 0.00 0.00 0.00 91 1010.2
20260505063136 54 154 1.7 1.7 0.00 0.00 0.00 91 1010.4
20260505062633 54 217 1.7 1.7 0.00 0.00 0.00 91 1010.0
20260505062130 54 256 2.6 2.6 0.00 0.00 0.00 91 1010.3
20260505061627 54 197 0.9 1.7 0.00 0.00 0.00 90 1010.3
20260505061125 54 164 0.0 0.0 0.00 0.00 0.00 90 1010.4
20260505060622 54 154 0.0 1.7 0.00 0.00 0.00 90 1010.4
20260505060119 54 143 0.9 1.7 0.00 0.00 0.00 90 1010.4
20260505055614 54 275 1.7 2.6 0.00 0.00 0.00 90 1010.3
20260505055111 54 207 0.0 0.0 0.00 0.00 0.00 90 1010.4
20260505054608 54 245 1.7 2.6 0.00 0.00 0.00 89 1010.6
20260505054107 54 161 1.7 2.6 0.00 0.00 0.00 89 1010.4
20260505053603 54 267 2.6 2.6 0.00 0.00 0.00 89 1010.4
20260505053100 55 233 2.6 2.6 0.00 0.00 0.00 88 1010.7
20260505052556 55 272 1.7 2.6 0.00 0.00 0.00 88 1010.6
20260505052054 55 144 2.6 2.6 0.00 0.00 0.00 88 1010.5
20260505051551 55 305 2.6 2.6 0.00 0.00 0.00 87 1010.6
20260505051049 55 194 0.9 1.7 0.00 0.00 0.00 87 1010.8
20260505050547 55 144 0.9 1.7 0.00 0.00 0.00 87 1010.6
20260505041515 56 129 0.0 0.0 0.00 0.00 0.00 83 1010.9
20260505041012 56 89 0.0 0.0 0.00 0.00 0.00 83 1011.0
20260505040509 56 104 0.0 0.0 0.00 0.00 0.00 82 1011.0
20260505040007 56 88 0.0 1.7 0.00 0.00 0.00 82 1011.1
20260505035502 56 101 0.0 0.0 0.00 0.00 0.00 82 1010.9
20260505034959 56 134 0.0 0.0 0.00 0.00 0.00 81 1011.0
20260505034455 56 111 0.0 0.0 0.00 0.00 0.00 81 1010.9
20260505033953 56 246 1.7 2.6 0.00 0.00 0.00 81 1011.0
20260505033449 56 185 0.0 0.0 0.00 0.00 0.00 81 1010.9
20260505032948 56 196 0.0 1.7 0.00 0.00 0.00 81 1011.0
20260505032445 56 90 0.0 0.0 0.00 0.00 0.00 81 1011.1
20260505031941 56 270 1.7 1.7 0.00 0.00 0.00 81 1011.0
20260505031438 56 62 0.0 0.0 0.00 0.00 0.00 81 1011.0
20260505030935 57 85 0.0 0.0 0.00 0.00 0.00 81 1011.0
20260505030431 56 258 1.7 1.7 0.00 0.00 0.00 81 1011.1
20260505025926 56 168 0.0 0.0 0.00 0.00 0.00 82 1011.1
20260505025424 56 109 0.0 0.0 0.00 0.00 0.00 82 1011.2
20260505024923 56 20 0.0 1.7 0.00 0.00 0.00 82 1011.3
20260505024420 56 179 0.0 1.7 0.00 0.00 0.00 82 1011.1
20260505023917 56 47 0.0 1.7 0.00 0.00 0.00 82 1011.2
20260505023414 57 224 0.9 1.7 0.00 0.00 0.00 82 1011.3
20260505022911 57 204 1.7 2.6 0.00 0.00 0.00 81 1011.2
20260505022408 57 118 0.9 1.7 0.00 0.00 0.00 81 1011.1
20260505021905 57 117 0.0 1.7 0.00 0.00 0.00 81 1011.3
20260505021402 56 209 1.7 1.7 0.00 0.00 0.00 81 1011.3
20260505020857 56 79 0.0 0.0 0.00 0.00 0.00 81 1011.2
20260505020353 56 242 2.6 2.6 0.00 0.00 0.00 82 1011.3
20260505015850 56 245 1.7 2.6 0.00 0.00 0.00 82 1011.3
20260505015347 56 193 0.9 1.7 0.00 0.00 0.00 82 1011.1
20260505014845 57 178 0.9 1.7 0.00 0.00 0.00 82 1011.1
20260505014341 57 41 2.6 4.3 0.00 0.00 0.00 82 1011.3
20260505013838 57 103 0.9 1.7 0.00 0.00 0.00 81 1011.1
20260505013335 57 70 0.0 1.7 0.00 0.00 0.00 82 1011.2
20260505012834 57 101 0.9 1.7 0.00 0.00 0.00 82 1011.1
20260505012331 57 193 2.6 2.6 0.00 0.00 0.00 82 1011.0
20260505011827 57 140 1.7 2.6 0.00 0.00 0.00 82 1011.0
20260505011324 57 198 0.0 1.7 0.00 0.00 0.00 82 1010.9
20260505010820 57 94 0.9 1.7 0.00 0.00 0.00 81 1010.8
20260505010316 57 111 0.9 1.7 0.00 0.00 0.00 81 1010.8
20260505005812 57 119 1.7 1.7 0.00 0.00 0.00 80 1010.7
20260505005309 57 191 1.7 2.6 0.00 0.00 0.00 79 1010.6
20260505004807 58 186 2.6 2.6 0.00 0.00 0.00 78 1010.6